Date String (YYYY-MM-DD hh:mm:ss) UTC,Instrument flags,absolute air pressure of the measurement (hPa),sample flow rate (lpm),inlet stack bypass flow (lpm),air temperature of the measurement (°C),ambient temperature measured by the external sensor (°C),aerosol sample conditioner tube jacket temperature (°C),OPC LED temperature (°C),internal box temperature (°C),relative humidity of the measurement (%),span deviation,mass concentration of particles derived from Lorenz-Mie calculation of OPC scattering (μg/m³),mass concentration of particles derived from Lorenz-Mie calculation of OPC scattering (μg/m³),mass concentration of particles derived from Lorenz-Mie calculation of OPC scattering (μg/m³)
DateTimeUTC,F1_M11,P_M11,Q1_M11,Q2_M11,T1_M11,T2_M11,T3_M11,T4_M11,T5_M11,U1_M11,ZSPAN_M11,X2_M11,X0_M11,X1_M11
2024-03-06 03:00:00,SystemResetWarning,0825.1,5.01,000.00,019.6,018.9,000.0,027.9,021.3,15.1,0000.0,0005.39,0019.52,0004.20
2024-03-06 03:01:00,SystemResetWarning,0825.1,4.99,000.00,019.6,018.9,000.0,027.9,021.3,15.0,0000.0,0005.37,0019.46,0004.16
2024-03-06 03:02:00,SystemResetWarning,0825.1,4.99,000.00,019.6,018.9,000.0,027.9,021.3,15.1,0000.0,0005.30,0019.15,0004.14
2024-03-06 03:03:00,SystemResetWarning,0825.1,4.99,000.00,019.6,018.9,000.0,027.9,021.3,15.1,0000.0,0005.32,0018.80,0004.15
2024-03-06 03:04:00,SystemResetWarning,0825.1,5.01,000.00,019.6,018.9,000.0,027.9,021.3,15.1,0000.0,0005.29,0019.29,0004.15
2024-03-06 03:05:00,SystemResetWarning,0825.1,5.00,000.00,019.6,018.9,000.0,027.9,021.3,15.1,0000.0,0005.33,0021.15,0004.16
2024-03-06 03:06:00,SystemResetWarning,0825.1,5.01,000.00,019.6,018.9,000.0,027.9,021.3,15.1,0000.0,0005.37,0021.76,0004.16
2024-03-06 03:07:00,SystemResetWarning,0825.1,4.99,000.00,019.6,018.9,000.0,027.9,021.3,15.1,0000.0,0005.43,0021.86,0004.17
2024-03-06 03:08:00,SystemResetWarning,0825.1,4.99,000.00,019.6,019.0,000.0,027.9,021.3,15.1,0000.0,0005.47,0021.50,0004.18
2024-03-06 03:09:00,SystemResetWarning,0825.0,5.01,000.00,019.6,019.0,000.0,027.9,021.3,15.0,0000.0,0005.54,0020.95,0004.21
2024-03-06 03:10:00,SystemResetWarning,0825.1,5.01,000.00,019.6,019.0,000.0,027.9,021.3,15.0,0000.0,0005.59,0021.62,0004.23
2024-03-06 03:11:00,SystemResetWarning,0825.1,5.00,000.00,019.6,019.0,000.0,027.9,021.3,15.1,0000.0,0005.57,0022.27,0004.24
2024-03-06 03:12:00,SystemResetWarning,0825.2,5.00,000.00,019.6,019.0,000.0,027.9,021.4,15.1,0000.0,0005.63,0022.12,0004.27
2024-03-06 03:13:00,SystemResetWarning,0825.2,4.99,000.00,019.6,019.0,000.0,027.9,021.3,15.0,0000.0,0005.65,0021.93,0004.30
2024-03-06 03:14:00,SystemResetWarning,0825.2,5.00,000.00,019.6,019.0,000.0,027.9,021.4,15.0,0000.0,0005.65,0022.47,0004.31
2024-03-06 03:15:00,SystemResetWarning,0825.2,5.00,000.00,019.6,019.0,000.0,027.9,021.4,15.0,0000.0,0005.70,0022.46,0004.32
2024-03-06 03:16:00,SystemResetWarning,0825.2,5.00,000.00,019.6,019.0,000.0,027.9,021.4,15.1,0000.0,0005.69,0021.21,0004.33
2024-03-06 03:17:00,SystemResetWarning,0825.2,5.00,000.00,019.6,019.0,000.0,027.9,021.3,15.1,0000.0,0005.68,0019.66,0004.34
2024-03-06 03:18:00,SystemResetWarning,0825.3,5.00,000.00,019.7,019.0,000.0,027.9,021.3,15.1,0000.0,0005.65,0019.23,0004.33
2024-03-06 03:19:00,SystemResetWarning,0825.3,5.00,000.00,019.7,019.0,000.0,028.0,021.3,15.1,0000.0,0005.61,0019.35,0004.31
2024-03-06 03:20:00,SystemResetWarning,0825.3,5.00,000.00,019.7,019.0,000.0,028.0,021.4,15.1,0000.0,0005.54,0019.87,0004.28
2024-03-06 03:21:00,SystemResetWarning,0825.3,5.00,000.00,019.7,019.0,000.0,028.0,021.4,15.1,0000.0,0005.56,0019.67,0004.26
2024-03-06 03:22:00,SystemResetWarning,0825.4,5.00,000.00,019.7,019.0,000.0,028.0,021.3,15.1,0000.0,0005.55,0018.39,0004.25
2024-03-06 03:23:00,SystemResetWarning,0825.3,5.00,000.00,019.7,019.0,000.0,028.0,021.3,15.1,0000.0,0005.49,0017.90,0004.22
2024-03-06 03:24:00,SystemResetWarning,0825.3,5.00,000.00,019.7,019.0,000.0,028.0,021.4,15.1,0000.0,0005.52,0017.75,0004.22
2024-03-06 03:25:00,SystemResetWarning,0825.3,5.00,000.00,019.7,019.0,000.0,028.0,021.4,15.1,0000.0,0005.56,0018.31,0004.22
2024-03-06 03:26:00,SystemResetWarning,0825.3,5.00,000.00,019.7,019.0,000.0,028.0,021.4,15.1,0000.0,0005.52,0018.11,0004.22
2024-03-06 03:27:00,SystemResetWarning,0825.3,5.00,000.00,019.7,019.0,000.0,028.0,021.4,15.1,0000.0,0005.48,0017.25,0004.21
2024-03-06 03:28:00,SystemResetWarning,0825.3,5.00,000.00,019.7,019.0,000.0,028.0,021.4,15.2,0000.0,0005.52,0016.87,0004.21
2024-03-06 03:29:00,SystemResetWarning,0825.3,5.00,000.00,019.7,019.0,000.0,028.0,021.4,15.3,0000.0,0005.50,0016.20,0004.21
2024-03-06 03:30:00,SystemResetWarning,0825.3,4.99,000.00,019.7,019.0,000.0,028.0,021.3,15.3,0000.0,0005.50,0016.10,0004.22
2024-03-06 03:31:00,SystemResetWarning,0825.4,4.99,000.00,019.7,019.0,000.0,028.0,021.3,15.4,0000.0,0005.49,0016.00,0004.23
2024-03-06 03:32:00,SystemResetWarning,0825.4,5.00,000.00,019.7,019.0,000.0,028.0,021.3,15.5,0000.0,0005.46,0015.26,0004.24
2024-03-06 03:33:00,SystemResetWarning,0825.4,5.00,000.00,019.6,019.0,000.0,028.0,021.3,15.7,0000.0,0005.44,0017.11,0004.25
2024-03-06 03:34:00,SystemResetWarning,0825.4,5.01,000.00,019.6,018.9,000.0,028.0,021.3,15.8,0000.0,0005.45,0017.20,0004.26
2024-03-06 03:35:00,SystemResetWarning,0825.3,5.00,000.00,019.6,018.9,000.0,028.0,021.3,15.9,0000.0,0005.41,0016.89,0004.26
2024-03-06 03:36:00,SystemResetWarning,0825.3,5.00,000.00,019.6,018.9,000.0,028.0,021.3,15.9,0000.0,0005.31,0016.59,0004.24
2024-03-06 03:37:00,SystemResetWarning,0825.3,5.00,000.00,019.6,018.9,000.0,027.9,021.3,16.0,0000.0,0005.32,0017.58,0004.23
2024-03-06 03:38:00,SystemResetWarning,0825.3,5.00,000.00,019.6,018.9,000.0,027.9,021.2,16.1,0000.0,0005.35,0018.90,0004.23
2024-03-06 03:39:00,SystemResetWarning,0825.2,5.00,000.00,019.6,018.9,000.0,027.9,021.2,16.2,0000.0,0005.31,0019.73,0004.23
2024-03-06 03:40:00,SystemResetWarning,0825.2,5.00,000.00,019.6,018.9,000.0,027.9,021.3,16.4,0000.0,0005.32,0020.51,0004.21
2024-03-06 03:41:00,SystemResetWarning,0825.2,5.00,000.00,019.6,018.9,000.0,027.9,021.3,16.9,0000.0,0005.36,0020.37,0004.21
2024-03-06 03:42:00,SystemResetWarning,0825.1,5.00,000.00,019.6,018.9,000.0,027.9,021.3,17.4,0000.0,0005.39,0021.87,0004.20
2024-03-06 03:43:00,SystemResetWarning,0825.1,5.00,000.00,019.6,018.9,000.0,027.9,021.2,17.8,0000.0,0005.38,0022.98,0004.19
2024-03-06 03:44:00,SystemResetWarning,0825.1,5.00,000.00,019.6,018.9,000.0,027.9,021.2,17.8,0000.0,0005.37,0021.78,0004.17
2024-03-06 03:45:00,SystemResetWarning,0825.1,5.00,000.00,019.6,018.9,000.0,027.9,021.3,18.0,0000.0,0005.36,0022.36,0004.15
2024-03-06 03:46:00,SystemResetWarning,0825.1,5.00,000.00,019.6,018.9,000.0,027.9,021.3,18.3,0000.0,0005.30,0022.73,0004.13
2024-03-06 03:47:00,SystemResetWarning,0825.1,5.00,000.00,019.6,018.9,000.0,027.9,021.2,18.4,0000.0,0005.29,0022.28,0004.10
2024-03-06 03:48:00,SystemResetWarning,0825.1,5.00,000.00,019.6,018.9,000.0,027.9,021.2,18.5,0000.0,0005.23,0020.40,0004.06
2024-03-06 03:49:00,SystemResetWarning,0825.1,5.01,000.00,019.6,018.9,000.0,027.9,021.2,18.4,0000.0,0005.13,0019.79,0004.03
2024-03-06 03:50:00,SystemResetWarning,0825.1,5.00,000.00,019.6,018.9,000.0,027.9,021.2,18.3,0000.0,0005.05,0018.59,0003.96
2024-03-06 03:51:00,SystemResetWarning,0825.1,4.99,000.00,019.6,018.9,000.0,027.9,021.2,18.2,0000.0,0004.92,0018.11,0003.89
2024-03-06 03:52:00,SystemResetWarning,0825.1,5.00,000.00,019.6,018.8,000.0,027.9,021.2,18.2,0000.0,0004.81,0018.29,0003.82
2024-03-06 03:53:00,SystemResetWarning,0825.1,5.00,000.00,019.5,018.8,000.0,027.9,021.2,18.1,0000.0,0004.75,0017.39,0003.75
2024-03-06 03:54:00,SystemResetWarning,0825.1,5.01,000.00,019.5,018.8,000.0,027.9,021.2,18.1,0000.0,0004.71,0016.80,0003.66
2024-03-06 03:55:00,SystemResetWarning,0825.1,5.01,000.00,019.5,018.8,000.0,027.9,021.1,18.2,0000.0,0004.59,0016.82,0003.57
2024-03-06 03:56:00,SystemResetWarning,0825.1,5.00,000.00,019.5,018.7,000.0,027.9,021.1,18.4,0000.0,0004.46,0015.95,0003.49
2024-03-06 03:57:00,SystemResetWarning,0825.1,4.99,000.00,019.5,018.7,000.0,027.9,021.1,18.7,0000.0,0004.32,0015.46,0003.38
2024-03-06 03:58:00,SystemResetWarning,0825.1,5.00,000.00,019.5,018.7,000.0,027.9,021.1,18.9,0000.0,0004.16,0015.63,0003.25
2024-03-06 03:59:00,SystemResetWarning,0825.1,5.01,000.00,019.4,018.7,000.0,027.9,021.1,19.1,0000.0,0003.99,0015.53,0003.09
